Weather History for KBKL - April, 2013

Change the Weather History Date:

Thursday, April 18, 2013

  Actual Average Record
Temperature  
Mean Temperature 64 °F -  
Max Temperature 84 °F 55 °F 86 °F (2004)
Min Temperature 44 °F 41 °F 36 °F (2001)
Degree Days  
Heating Degree Days 1    
Growing Degree Days 14 (Base 50)    
Moisture  
Dew Point 54 °F    
Average Humidity 67    
Maximum Humidity 89    
Minimum Humidity 32    
Precipitation  
Precipitation 0.00 in - - ()
Sea Level Pressure  
Sea Level Pressure 29.79 in    
Wind  
Wind Speed 13 mph (South)    
Max Wind Speed 24 mph    
Max Gust Speed 40 mph    
Visibility 10 miles    
Events      
Averages and records for this station are not official NWS values.
T = Trace of Precipitation, MM = Missing Value Source: NWS Daily Summary

Daily Weather History Graph

Daily Weather History Graph

Search for Another Location

Airport or City:

Trip Planner

Search our weather history database for the weather conditions in past years. The results will help you decide how hot, cold, wet, or windy it might be!

Date:

Astronomy

Apr. 18, 2013 Rise Set
Actual Time 6:41 AM EDT 8:10 PM EDT
Civil Twilight 6:12 AM EDT 8:39 PM EDT
Nautical Twilight 5:38 AM EDT 9:14 PM EDT
Astronomical Twilight 5:01 AM EDT 9:52 PM EDT
Moon 12:51 PM EDT (4/18) 2:25 AM EDT (4/18)
Length of Visible Light 14h 26m
Length of Day
13h 28m
First Quarter, 51% of the Moon is Illuminated
Apr 18
First Quarter
Apr 25
Full
May 2
Last Quarter
May 9
New
May 18
First Quarter

Hourly Weather History & Observations

Time (EDT) Temp. Windchill Dew Point Humidity Pressure Visibility Wind Dir Wind Speed Gust Speed Precip Events Conditions
12:53 AM 46.9 °F - 41.0 °F 80% 30.02 in 10.0 mi NNE 6.9 mph - N/A   Mostly Cloudy
1:53 AM 46.0 °F 41.0 °F 41.0 °F 83% 29.99 in 10.0 mi NE 10.4 mph - N/A   Clear
2:53 AM 44.1 °F 38.1 °F 41.0 °F 89% 29.95 in 10.0 mi NE 11.5 mph - N/A   Clear
3:53 AM 59.0 °F - 54.0 °F 83% 29.90 in 10.0 mi SSE 9.2 mph - N/A   Clear
4:53 AM 62.1 °F - 55.0 °F 78% 29.89 in 10.0 mi SSE 15.0 mph 24.2 mph N/A   Clear
5:53 AM 62.1 °F - 55.0 °F 78% 29.87 in 10.0 mi SSE 16.1 mph 24.2 mph N/A   Mostly Cloudy
6:53 AM 62.1 °F - 55.9 °F 80% 29.88 in 10.0 mi SSE 17.3 mph - N/A   Clear
7:53 AM 64.0 °F - 55.9 °F 75% 29.87 in 10.0 mi South 18.4 mph 25.3 mph N/A   Mostly Cloudy
8:53 AM 66.0 °F - 55.9 °F 70% 29.86 in 10.0 mi South 19.6 mph 28.8 mph N/A   Clear
9:53 AM 72.0 °F - 57.9 °F 61% 29.84 in 10.0 mi South 16.1 mph 23.0 mph N/A   Mostly Cloudy
10:53 AM 73.9 °F - 60.1 °F 62% 29.83 in 10.0 mi South 17.3 mph 28.8 mph N/A   Overcast
11:53 AM 75.9 °F - 60.1 °F 58% 29.80 in 10.0 mi South 19.6 mph 29.9 mph N/A   Mostly Cloudy
12:53 PM 80.1 °F - 61.0 °F 52% 29.77 in 10.0 mi SSW 21.9 mph 32.2 mph N/A   Partly Cloudy
1:53 PM 81.0 °F - 60.1 °F 49% 29.74 in 10.0 mi SSW 21.9 mph 32.2 mph N/A   Scattered Clouds
2:53 PM 82.9 °F - 57.9 °F 42% 29.71 in 10.0 mi South 21.9 mph 39.1 mph N/A   Clear
3:53 PM 84.0 °F - 59.0 °F 43% 29.69 in 10.0 mi South 21.9 mph 32.2 mph N/A   Scattered Clouds
4:53 PM 82.9 °F - 57.0 °F 41% 29.67 in 10.0 mi South 24.2 mph 40.3 mph N/A   Partly Cloudy
5:53 PM 84.9 °F - 52.0 °F 32% 29.65 in 10.0 mi SSW 21.9 mph 36.8 mph N/A   Clear
6:53 PM 82.9 °F - 51.1 °F 33% 29.64 in 10.0 mi SSW 17.3 mph 35.7 mph N/A   Partly Cloudy
7:53 PM 57.0 °F - 51.1 °F 81% 29.68 in 10.0 mi WNW 11.5 mph - N/A   Mostly Cloudy
8:53 PM 57.0 °F - 54.0 °F 89% 29.70 in 10.0 mi Calm Calm - N/A   Mostly Cloudy
9:53 PM 57.0 °F - 54.0 °F 89% 29.71 in 10.0 mi Calm Calm - N/A   Overcast
10:53 PM 60.1 °F - 55.0 °F 83% 29.70 in 10.0 mi Calm Calm - N/A   Mostly Cloudy
11:53 PM 63.0 °F - 55.0 °F 75% 29.68 in 10.0 mi Calm Calm - N/A   Overcast